ソーホー彗星

322P/SOHO (1999)

English version
Home page
Updated on June 14, 2015

---------------------------------------------------------------------

・ プロフィール

符号 322P/1999 R1

・ 軌道要素

Epoch 1999 Sept. 19.0 TT = JDT 2451440.5
T 1999 Sept. 5.52185 TT                                 MPCW
q   0.0563802            (2000.0)            P               Q
n   0.24608401     Peri.   43.47622     +0.66195633     -0.74923393
a   2.5220118      Node     5.21022     +0.60644625     +0.51850210
e   0.9776447      Incl.   13.69653     +0.44049604     +0.41207293
P   4.01
From 244 observations 1999 Sept. 4-2015 May 22.

・ 光度変化

        m1 = 19.0 + 5 logΔ + 10.0 log r(t - 0.17)

---------------------------------------------------------------------

軌道要素はM.P.E.C. 2015-K84に掲載されたものです。
光度グラフはComet for Windowsで作成したものです。

---------------------------------------------------------------------

Copyright(C) Seiichi Yoshida (comet@aerith.net). All rights reserved.